Weather History for Imperial, NE

Change the Weather History Date:

Sunday, May 5, 2013

  Actual Average Record
Temperature  
Mean Temperature 46 °F 56 °F  
Max Temperature 65 °F 69 °F 95 °F (1916)
Min Temperature 27 °F 42 °F 26 °F (1944)
Degree Days  
Heating Degree Days 19 10  
Month to date heating degree days 117 52  
Cooling Degree Days 0 1  
Month to date cooling degree days 0 1  
Year to date cooling degree days 2 2  
Moisture  
Dew Point 22 °F    
Average Humidity 47    
Maximum Humidity 75    
Minimum Humidity 18    
Precipitation  
Precipitation 0.00 in 0.09 in 1.58 in (1982)
Sea Level Pressure  
Sea Level Pressure 30.21 in    
Wind  
Wind Speed 5 mph (NNW)    
Max Wind Speed 14 mph    
Max Gust Speed 25 mph    
Visibility 10 miles    
Events      
T = Trace of Precipitation, MM = Missing Value Source: NWS Daily Summary

Daily Weather History Graph

Daily Weather History Graph

Search for Another Location

Airport:

Trip Planner

Search our weather history database for the weather conditions in past years. The results will help you decide how hot, cold, wet, or windy it might be!

Date:

Astronomy

May. 05, 2013 Rise Set
Actual Time 5:40 AM MDT 7:46 PM MDT
Civil Twilight 5:10 AM MDT 8:16 PM MDT
Nautical Twilight 4:33 AM MDT 8:53 PM MDT
Astronomical Twilight 3:53 AM MDT 9:33 PM MDT
Moon 3:12 AM MDT (5/5) 3:47 PM MDT (5/5)
Length of Visible Light 15h 06m
Length of Day
14h 06m
Waning Crescent, 17% of the Moon is Illuminated
May 5
Waning Crescent
May 9
New
May 17
First Quarter
May 24
Full
May 31
Last Quarter

Hourly Weather History & Observations

Time (MDT) Temp. Windchill Dew Point Humidity Pressure Visibility Wind Dir Wind Speed Gust Speed Precip Events Conditions
12:53 AM 32.0 °F 28.7 °F 21.0 °F 64% 30.28 in 10.0 mi NW 3.5 mph - N/A   Clear
1:53 AM 30.9 °F 24.3 °F 21.0 °F 67% 30.26 in 10.0 mi NNW 6.9 mph - N/A   Clear
2:53 AM 30.0 °F 24.1 °F 21.0 °F 69% 30.26 in 10.0 mi NW 5.8 mph - N/A   Clear
3:53 AM 28.9 °F 25.2 °F 19.9 °F 69% 30.25 in 10.0 mi NW 3.5 mph - N/A   Clear
4:53 AM 27.0 °F 23.0 °F 19.9 °F 75% 30.25 in 10.0 mi NW 3.5 mph - N/A   Clear
5:53 AM 28.9 °F 22.8 °F 21.0 °F 72% 30.27 in 10.0 mi West 5.8 mph - N/A   Clear
6:53 AM 32.0 °F 27.5 °F 23.0 °F 69% 30.28 in 10.0 mi WNW 4.6 mph - N/A   Clear
7:53 AM 43.0 °F 38.2 °F 25.0 °F 49% 30.29 in 10.0 mi WNW 8.1 mph - N/A   Clear
8:53 AM 48.9 °F - 23.0 °F 36% 30.29 in 10.0 mi NNW 10.4 mph - N/A   Clear
9:53 AM 52.0 °F - 19.9 °F 28% 30.27 in 10.0 mi NNE 6.9 mph - N/A   Clear
10:53 AM 55.0 °F - 19.9 °F 25% 30.25 in 10.0 mi Variable 5.8 mph 17.3 mph N/A   Clear
11:53 AM 59.0 °F - 19.4 °F 22% 30.21 in 10.0 mi NNE 10.4 mph - N/A   Clear
12:53 PM 57.9 °F - 19.0 °F 22% 30.22 in 10.0 mi Variable 5.8 mph 20.7 mph N/A   Clear
1:53 PM 62.1 °F - 21.0 °F 21% 30.19 in 10.0 mi North 8.1 mph - N/A   Clear
2:53 PM 64.0 °F - 21.0 °F 19% 30.16 in 10.0 mi NNE 9.2 mph - N/A   Clear
3:53 PM 64.0 °F - 19.9 °F 18% 30.14 in 10.0 mi Variable 4.6 mph - N/A   Clear
4:53 PM 64.0 °F - 19.9 °F 18% 30.14 in 10.0 mi Calm Calm - N/A   Clear
5:53 PM 63.0 °F - 19.9 °F 19% 30.13 in 10.0 mi Calm Calm - N/A   Clear
6:53 PM 60.1 °F - 21.9 °F 23% 30.13 in 10.0 mi East 4.6 mph - N/A   Clear
7:53 PM 54.0 °F - 28.0 °F 37% 30.13 in 10.0 mi SE 3.5 mph - N/A   Clear
8:53 PM 50.0 °F - 27.0 °F 41% 30.14 in 10.0 mi SE 3.5 mph - N/A   Clear
9:53 PM 48.0 °F - 28.0 °F 46% 30.15 in 10.0 mi Calm Calm - N/A   Clear
10:53 PM 46.9 °F - 27.0 °F 46% 30.14 in 10.0 mi Calm Calm - N/A   Clear
11:53 PM 44.1 °F - 28.0 °F 53% 30.13 in 10.0 mi Calm Calm - N/A   Clear